Wind_Speed
15 14 13 11 10 9 9 8 7 7 7 7 8 8 9 9 10 11 12 12 12 12 12 11 10 10 9 9 9 9 9 8 9 9 9 10 10 10 10 9 9 9 10 10 10 10 10 10 10 9 9 11 11 11 12 12 11 13 13 14 16 15 13 12 9 9 10 8 9 16 16 9 10 13 11 11 12 13 14 15 15 17 18 19 20 20 20 20
14 14 14 12 10 9 8 7 6 6 6 7 7 8 8 9 11 12 12 12 11 11 11 11 10 9 9 9 9 10 10 9 9 9 10 10 10 10 10 10 10 10 10 11 11 10 11 10 10 10 10 11 11 11 12 12 12 13 12 14 17 13 13 15 13 11 12 12 11 16 18 13 13 15 12 11 12 15 15 15 17 18 19 19 20 21 21 21
13 14 14 13 12 10 9 7 7 6 6 6 7 8 9 11 12 12 12 11 11 11 11 10 10 9 9 9 9 10 10 10 10 10 10 10 10 10 10 11 10 11 10 11 12 11 12 11 11 11 10 10 11 12 11 13 15 13 13 16 15 13 15 18 19 17 17 16 13 16 19 17 15 15 14 11 14 18 17 16 18 19 19 19 20 21 22 22
12 12 12 12 11 10 9 8 7 7 7 7 8 9 10 11 12 12 11 11 11 10 11 10 10 9 9 9 10 9 10 11 11 10 10 10 10 11 11 12 11 11 11 11 12 12 12 12 12 11 11 10 12 15 12 15 16 12 17 17 13 16 16 17 22 20 18 18 15 16 19 19 16 16 16 15 16 20 19 18 19 19 20 21 21 22 23 24
10 10 10 10 10 9 8 8 8 8 8 8 9 10 10 11 11 11 11 11 11 11 11 10 10 10 9 10 10 10 10 9 10 10 11 12 12 13 13 13 13 13 12 12 12 13 13 13 13 12 13 11 13 17 13 16 17 14 20 17 16 21 17 18 24 20 17 17 15 17 20 20 18 17 18 17 19 22 23 22 22 22 23 24 24 23 25 27
10 10 10 9 9 9 9 9 8 8 8 9 9 10 10 11 11 11 11 11 11 11 11 11 10 10 10 10 10 10 8 8 10 11 12 12 13 14 14 14 14 14 14 13 12 13 13 13 13 13 13 12 14 17 13 17 18 16 17 15 19 22 16 20 24 20 18 17 17 19 21 21 20 20 20 20 21 24 25 24 25 26 26 27 26 27 29 29
10 10 9 9 9 9 9 8 8 8 8 9 9 10 10 11 11 11 11 12 12 12 12 12 12 12 11 11 11 11 10 10 11 12 12 13 14 14 15 15 14 14 14 14 13 13 13 14 14 13 13 13 14 15 15 19 19 17 16 15 22 22 18 22 21 20 20 19 20 22 22 22 22 23 22 22 24 25 26 27 27 28 29 30 30 31 32 32
11 10 10 9 9 9 9 9 10 10 10 10 10 11 11 12 12 12 13 13 13 13 13 13 13 13 12 12 12 12 12 12 12 13 13 14 14 15 15 15 15 15 14 14 14 13 13 13 13 13 13 14 16 17 18 19 19 20 18 16 22 22 20 22 20 20 21 21 23 23 22 23 24 25 25 26 27 27 28 29 29 30 31 32 33 33 34 34
11 11 10 10 10 10 11 11 11 11 12 12 12 13 13 13 14 14 14 14 14 14 13 13 13 13 13 13 12 13 14 14 14 14 14 14 14 15 15 14 14 15 15 14 14 14 13 13 13 14 14 16 18 18 19 17 16 19 18 16 20 20 20 20 19 21 20 21 23 22 23 24 25 25 27 28 29 30 30 30 31 31 31 32 33 33 34 33
11 11 10 10 10 11 11 11 12 12 12 12 13 13 13 14 14 15 15 15 15 14 14 14 13 14 14 13 13 14 15 15 15 15 15 14 14 14 14 13 13 14 14 14 14 14 14 14 14 14 15 17 18 18 19 17 16 18 19 18 19 20 21 20 20 20 19 21 23 23 23 24 25 27 29 30 31 31 32 32 32 32 32 32 32 32 32 32
9 10 9 9 10 10 10 11 11 12 12 13 13 14 14 14 15 15 15 15 15 15 14 14 14 13 14 14 14 16 16 16 16 15 15 14 13 13 13 12 12 12 13 13 14 14 14 14 14 14 15 16 17 18 19 19 19 19 19 20 20 21 22 21 21 20 20 22 24 24 23 25 27 28 31 32 32 33 33 33 33 32 32 31 31 31 30 30
8 8 8 9 10 9 9 10 10 11 12 13 13 14 14 15 15 16 16 16 16 16 15 14 13 13 14 14 15 15 15 15 15 15 14 14 13 13 13 12 12 12 14 15 16 15 15 15 14 14 15 14 15 17 17 17 17 17 17 17 17 20 21 22 22 19 20 23 24 24 21 24 29 29 32 33 33 34 33 33 32 32 31 30 30 29 28 28
8 9 9 9 10 9 8 9 10 11 12 13 13 14 15 15 16 16 17 17 17 17 16 15 14 14 14 14 14 15 15 15 14 13 13 13 13 13 13 14 14 15 16 17 16 16 15 15 15 15 15 16 17 17 17 18 17 16 17 16 14 15 18 23 23 19 21 24 25 23 16 20 29 29 31 32 32 34 32 32 31 30 30 29 28 27 27 26
9 9 9 10 10 10 8 9 11 12 13 14 14 15 16 16 17 17 17 17 17 17 16 16 16 14 13 14 15 15 15 14 12 12 12 13 13 13 13 14 14 15 15 15 14 15 15 14 15 15 15 16 17 17 18 20 19 17 17 19 17 14 16 23 23 19 22 23 23 23 16 20 29 27 28 29 30 32 30 29 29 28 28 27 26 25 25 25
9 9 10 10 11 11 9 10 12 13 14 15 15 16 17 17 18 18 18 18 18 17 18 17 15 13 13 15 14 13 12 12 12 12 12 12 12 12 12 12 13 13 13 13 13 13 13 14 14 15 15 15 16 17 16 16 17 16 15 16 14 12 15 21 22 19 21 20 19 18 14 22 30 27 26 27 28 29 28 28 28 27 26 24 23 23 23 23
9 10 11 11 12 11 11 11 12 14 15 15 16 17 17 18 19 18 18 18 18 18 18 17 13 12 13 13 11 11 12 11 11 11 11 12 12 13 13 14 14 14 14 14 13 13 12 13 13 14 15 14 15 15 13 12 14 14 14 13 11 10 11 15 19 19 18 18 16 15 15 23 29 27 26 27 27 28 27 27 26 25 23 22 21 21 21 21
11 12 12 13 13 12 12 13 13 15 15 16 16 17 18 19 19 19 19 18 18 19 18 15 13 13 11 10 10 11 11 10 10 11 12 13 14 15 15 16 16 16 15 14 13 12 12 12 12 13 14 14 14 12 11 11 11 10 10 10 11 11 11 12 15 17 16 16 16 18 22 27 29 27 25 25 27 27 27 26 24 23 21 20 19 19 19 19
13 14 14 15 15 14 14 15 15 16 16 17 17 18 19 20 19 19 19 19 18 18 16 14 13 10 7 8 10 9 9 9 11 12 14 15 15 16 15 15 15 14 14 13 12 12 13 14 12 12 12 12 10 8 9 10 10 10 10 11 12 12 12 11 13 16 16 16 17 20 25 29 29 28 26 26 27 27 26 24 23 21 20 19 18 17 17 17
15 16 16 17 17 16 16 16 17 17 17 17 17 19 20 20 21 21 20 19 18 17 14 13 11 6 5 8 8 7 9 11 13 15 16 17 16 15 14 13 12 12 11 11 12 13 13 13 11 8 7 6 6 8 12 14 15 16 17 17 17 16 15 15 17 19 18 16 18 21 24 27 28 28 28 27 27 26 24 23 22 21 19 18 17 17 17 17
16 17 18 18 17 16 16 16 17 17 17 17 18 20 21 21 22 21 20 19 18 16 13 11 8 4 5 7 7 8 11 13 15 17 16 16 15 13 12 12 12 11 10 10 11 13 12 10 7 8 9 11 13 15 16 17 18 18 18 17 18 17 16 19 21 21 20 18 19 22 23 24 26 27 28 27 26 24 23 22 21 20 19 18 17 17 16 16
18 18 18 18 17 16 16 16 16 16 16 17 19 20 21 23 21 20 20 18 16 15 12 8 5 4 6 7 8 10 13 15 17 17 15 14 13 13 12 13 12 9 11 11 11 12 11 6 7 11 13 14 15 16 16 17 17 16 16 15 15 15 15 20 23 21 21 19 20 24 23 22 25 26 26 25 24 24 24 22 21 19 18 17 17 17 16 16
21 20 20 18 18 16 15 15 15 15 15 17 19 20 22 23 21 18 17 17 15 12 8 5 5 6 6 8 11 13 15 16 15 14 14 12 12 13 12 12 11 8 11 12 9 10 8 5 10 13 14 14 14 15 15 15 16 15 14 12 13 13 15 19 21 20 20 18 20 23 22 22 25 26 25 25 25 25 23 21 20 19 18 17 17 17 17 16
22 22 21 19 17 15 14 14 14 15 16 18 20 21 22 22 20 17 15 14 11 7 6 6 7 8 7 10 13 15 15 13 12 12 12 11 12 12 11 11 11 11 12 12 9 7 5 7 12 14 14 14 15 15 15 15 14 12 10 10 12 12 13 15 17 18 18 17 18 19 19 21 24 24 25 25 24 23 21 19 18 18 17 17 17 16 17 17
19 17 15 14 12 12 13 13 14 15 17 19 20 22 21 19 16 14 13 10 5 5 6 7 9 9 10 14 15 15 14 11 12 13 12 13 14 13 12 12 12 12 12 12 10 6 6 8 12 14 14 15 14 13 15 15 13 10 10 11 12 13 14 16 18 19 17 17 21 18 14 18 23 23 23 23 22 20 20 18 17 16 16 16 16 16 17 17
11 10 10 10 10 11 12 13 15 17 19 20 21 20 18 16 14 12 11 5 4 7 8 9 11 9 13 16 15 15 11 10 13 14 14 16 15 14 14 13 13 12 13 13 8 4 8 12 14 15 14 14 13 10 12 13 12 10 9 12 14 13 14 17 19 16 12 14 19 15 8 9 15 18 20 21 21 20 20 19 18 17 17 17 16 17 17 18
9 9 10 10 11 12 13 15 17 19 20 21 19 17 15 14 13 12 8 1 3 9 10 10 12 12 15 16 14 13 9 11 15 15 16 16 15 15 14 13 13 12 13 13 7 6 12 16 15 14 13 12 10 9 12 14 12 9 10 13 16 14 13 15 15 10 9 10 12 10 7 6 8 13 18 19 19 21 20 19 19 19 18 18 17 18 18 18
9 10 10 11 13 14 16 18 19 20 20 18 16 15 14 13 11 9 4 4 1 10 11 11 13 14 15 14 13 13 9 12 15 14 16 15 16 16 14 14 13 13 15 12 9 11 15 15 13 14 13 10 9 11 14 15 14 11 13 16 17 15 12 13 12 10 11 12 13 10 11 11 7 10 16 16 16 19 20 21 21 20 20 19 19 19 19 19
11 12 13 15 16 17 18 18 19 20 18 16 14 14 13 12 10 6 1 3 3 10 11 12 14 14 13 12 13 14 11 12 14 15 16 15 16 15 14 14 12 12 17 14 12 14 14 12 12 14 15 12 13 16 16 16 15 13 15 16 17 16 14 13 11 12 13 12 13 12 12 9 3 10 11 10 11 14 17 21 22 21 21 20 20 20 19 19
14 15 16 17 17 17 18 18 19 17 15 14 13 13 12 10 8 3 2 1 5 10 10 12 13 11 11 12 14 14 13 14 15 16 17 17 18 15 13 14 11 11 17 18 17 15 12 11 12 16 19 18 17 16 16 16 14 15 18 18 18 18 16 14 12 13 13 12 14 12 11 9 2 9 8 6 9 9 11 18 22 23 23 22 22 21 21 21
16 16 16 17 17 18 18 17 16 15 14 14 12 12 10 7 6 1 2 2 5 9 11 11 11 10 10 12 13 13 13 15 15 15 16 17 17 13 11 13 12 12 16 19 19 16 13 10 11 19 21 18 17 15 17 19 16 18 21 19 19 18 15 12 9 9 10 7 6 5 6 10 4 6 6 6 9 7 10 15 20 23 25 25 24 24 23 23
17 16 16 17 17 17 17 15 15 14 13 13 11 10 7 5 6 2 1 4 4 7 10 9 9 10 10 12 13 14 14 15 16 16 17 17 17 15 14 18 18 14 12 17 18 15 14 10 12 20 19 16 18 17 17 19 19 21 19 16 17 15 10 8 6 6 6 3 4 8 4 8 5 5 4 7 9 9 11 14 17 21 24 26 27 26 26 26
17 17 17 17 16 16 15 14 14 13 12 11 9 8 4 3 7 6 3 4 4 7 9 8 10 11 12 14 15 15 16 17 17 19 20 21 21 22 23 25 25 17 11 16 16 12 11 9 13 21 18 19 24 20 16 17 17 18 17 16 16 10 7 7 4 4 6 3 7 11 12 7 2 3 3 10 10 12 14 16 19 22 24 26 27 27 27 27
17 17 16 16 15 15 14 13 12 11 10 9 7 6 3 3 5 6 6 6 5 6 8 8 10 13 14 16 16 16 17 18 18 20 21 21 23 25 25 24 23 18 11 12 14 12 8 7 13 20 18 21 27 21 18 18 15 15 16 17 13 8 7 7 6 8 8 5 9 17 15 5 0 2 8 11 12 13 15 18 21 22 22 24 26 27 27 28
17 16 15 14 13 13 12 11 10 9 8 7 6 4 5 6 5 5 8 8 6 7 8 8 10 14 16 17 17 16 17 18 18 19 20 19 21 24 24 23 22 21 15 8 10 13 7 5 13 18 17 22 24 19 19 17 11 12 14 14 12 9 7 5 7 9 9 12 18 17 10 2 2 6 12 14 15 15 15 17 19 21 22 23 25 26 27 28
15 14 13 12 12 11 11 10 9 8 7 7 5 4 8 8 5 6 8 9 8 8 8 10 12 13 14 16 17 17 16 18 18 18 20 20 21 23 24 24 22 22 19 11 11 13 7 5 14 18 19 22 20 17 19 15 10 10 12 12 13 11 6 7 10 11 11 13 12 5 2 3 5 9 14 15 15 14 14 16 18 20 21 23 24 25 27 29
13 12 12 11 11 11 11 10 8 7 6 5 4 8 13 10 7 9 9 9 11 9 8 9 11 11 11 14 17 17 16 18 18 15 18 19 18 22 24 22 21 22 20 15 13 15 10 6 13 20 22 20 16 16 19 18 13 10 11 14 15 11 7 8 11 12 11 9 7 1 1 3 5 8 12 13 15 14 14 15 17 18 20 21 23 24 26 28
12 12 12 12 11 11 10 9 8 7 6 5 5 13 16 13 11 11 11 11 12 11 9 8 10 11 12 11 15 17 15 17 16 11 14 16 14 20 23 19 19 20 19 16 13 14 11 4 8 18 19 16 15 15 16 18 17 13 11 16 15 7 5 8 10 10 8 7 8 5 3 2 2 6 10 14 15 15 16 16 17 18 18 20 22 24 26 29
12 12 12 12 11 10 9 8 8 8 7 6 11 17 15 13 13 12 12 12 11 13 13 11 11 13 14 13 14 17 15 16 17 11 11 13 12 16 20 18 18 18 18 17 13 13 13 4 4 14 16 14 15 13 12 16 19 17 13 17 17 6 5 11 10 8 7 7 8 7 4 3 2 4 9 13 15 17 19 20 21 21 21 23 25 27 30 33
12 11 11 11 10 10 9 9 11 10 6 7 14 16 14 14 14 12 12 12 11 13 14 13 12 12 14 15 14 15 14 16 18 14 11 12 11 14 17 16 17 17 16 16 14 13 12 6 5 12 15 14 15 14 11 14 20 20 16 18 19 9 7 12 10 6 7 8 7 9 8 3 2 6 10 11 15 20 23 24 25 26 26 26 28 31 33 34
11 10 10 11 10 10 10 11 12 8 5 10 16 15 13 14 14 13 13 12 12 14 14 13 13 13 13 14 14 13 14 15 16 15 14 14 12 12 16 15 15 16 15 16 16 13 10 6 6 11 13 11 11 14 13 14 19 20 18 21 22 16 10 10 7 4 7 8 6 9 9 4 4 9 11 13 20 25 26 27 27 28 30 29 30 33 34 35
11 9 9 10 9 10 10 9 9 8 9 14 16 15 14 14 14 14 14 13 14 14 13 12 13 13 13 14 14 12 13 14 15 14 14 14 12 11 13 15 15 15 16 16 16 13 11 10 8 9 9 8 9 13 13 14 17 18 18 19 18 15 12 8 4 5 8 8 7 9 8 6 9 12 13 20 29 32 32 31 28 28 30 31 32 34 37 40
10 8 8 9 9 10 10 7 7 10 13 16 15 15 15 14 14 14 13 13 14 13 12 12 12 13 13 13 13 12 12 14 14 13 13 13 13 12 13 15 15 15 16 15 14 12 13 15 11 7 6 8 9 11 11 13 19 20 20 20 16 11 10 7 6 9 11 10 11 12 9 8 11 13 19 29 35 36 35 33 30 28 28 31 34 38 42 44
9 8 8 8 9 10 8 7 10 12 14 15 15 15 15 14 14 14 12 13 13 12 12 12 12 13 13 12 13 12 11 12 13 12 11 11 12 13 13 14 14 15 16 15 14 13 13 15 13 8 7 8 8 8 9 13 18 18 19 22 17 11 10 8 6 9 11 8 10 12 10 9 13 20 29 36 37 36 35 33 31 29 30 34 39 42 43 43
8 8 7 8 10 9 6 9 12 12 14 16 15 14 15 15 14 14 13 12 12 11 12 13 12 12 12 12 13 13 11 10 12 12 10 10 12 13 13 13 13 15 16 15 15 14 12 14 13 9 7 5 5 6 6 11 14 14 19 21 15 11 10 8 6 7 7 7 12 13 10 11 19 28 35 37 35 34 32 31 31 32 34 39 42 42 42 42
7 7 7 9 11 8 8 12 12 12 14 15 15 15 14 14 14 13 12 12 12 12 12 12 12 11 12 11 12 13 12 10 10 10 10 10 11 12 12 13 13 14 15 15 15 13 12 15 13 9 6 6 6 5 7 14 14 12 17 18 13 11 11 9 8 6 7 13 18 15 12 17 23 28 33 33 29 28 29 30 31 33 38 42 43 42 42 41
6 7 7 10 11 9 10 14 13 12 13 13 15 15 13 13 14 12 12 12 12 12 12 12 11 11 11 11 12 13 13 12 10 10 10 10 10 11 12 12 12 12 14 15 15 14 13 14 14 9 5 6 8 8 12 16 13 12 15 14 11 12 11 10 8 7 12 17 16 13 15 24 26 23 25 26 26 28 32 33 34 37 42 43 43 43 43 42
6 8 7 8 9 10 12 15 13 13 12 12 14 15 13 12 12 12 12 12 12 11 12 12 11 11 11 11 11 12 11 11 11 10 10 10 9 9 10 11 12 12 13 14 15 15 12 10 13 11 6 6 11 13 15 17 15 14 14 11 10 11 10 9 9 12 16 14 14 17 23 27 28 24 24 28 30 32 35 35 38 42 44 43 43 43 43 42
7 8 8 8 9 10 12 14 13 13 11 11 14 15 13 12 12 12 12 12 12 12 11 12 11 11 11 10 10 10 10 10 9 9 9 9 8 8 8 9 11 12 13 13 15 15 12 10 13 14 9 8 14 17 18 19 19 15 10 8 10 11 9 9 14 19 20 16 19 26 29 29 29 26 27 32 34 36 38 40 42 44 44 43 43 43 43 42
8 9 9 10 10 11 12 13 13 12 11 11 14 15 14 13 13 12 12 12 12 12 11 11 11 10 11 10 9 9 9 8 8 8 8 8 8 8 8 8 10 12 13 13 14 14 12 11 14 16 11 9 15 20 20 21 20 14 8 8 11 11 9 13 19 24 25 25 26 29 31 31 29 27 30 35 38 39 41 42 42 43 44 44 43 43 42 42
9 9 10 10 10 12 13 13 13 12 11 12 14 15 14 13 13 12 12 12 12 11 10 10 10 9 9 9 8 8 8 8 7 7 7 7 7 8 8 8 9 11 12 13 13 13 13 12 14 17 13 9 14 22 22 20 18 11 6 10 13 11 11 16 22 26 29 30 29 30 31 27 25 30 35 38 40 41 42 43 42 42 43 43 42 42 42 42
9 9 10 9 10 13 14 13 12 12 12 13 13 14 14 13 13 12 12 12 11 10 10 9 9 9 8 8 7 7 8 7 6 6 5 5 6 7 8 7 8 9 11 13 13 13 15 14 15 17 13 8 15 23 22 19 15 7 6 12 14 12 13 18 24 29 30 30 31 31 28 22 25 34 39 40 42 43 43 44 44 43 42 42 41 41 41 42
9 9 10 8 9 13 14 13 12 12 13 13 13 14 14 13 13 12 11 11 10 9 9 8 8 8 7 7 5 5 6 6 6 5 4 4 4 6 7 7 8 9 11 13 13 14 16 15 16 16 11 8 14 20 19 17 10 4 7 14 15 15 17 22 28 29 28 26 28 28 25 25 32 38 40 42 44 43 44 45 45 44 44 41 40 41 42 42
Wind_Direction
353 352 348 341 332 324 318 313 311 310 312 317 324 331 334 334 333 333 332 331 331 331 332 330 325 325 321 315 313 310 307 305 302 301 302 302 299 297 296 292 289 285 284 282 281 281 282 282 281 281 278 276 273 268 266 256 248 241 230 229 239 245 254 250 235 243 246 247 278 276 267 261 262 258 257 264 263 258 250 242 235 228 225 223 226 232 238 245
1 3 1 358 352 345 339 335 332 329 329 333 336 337 335 333 332 331 329 328 328 330 332 330 326 325 323 318 316 313 313 312 310 309 308 305 301 299 297 294 292 288 285 283 282 284 286 288 289 288 286 282 276 266 264 261 252 243 230 233 242 246 255 247 233 248 255 249 258 268 268 259 257 263 264 267 264 260 254 246 239 233 233 233 236 239 244 250
7 8 9 10 11 10 7 4 359 354 350 348 344 338 335 334 333 331 330 329 328 330 331 329 326 325 324 321 318 317 317 316 314 313 310 306 302 301 301 298 296 291 288 285 284 285 288 291 290 289 287 277 270 268 261 257 256 249 236 237 248 253 253 253 249 256 260 255 258 267 270 266 264 266 261 256 259 263 260 254 249 244 243 242 244 246 249 254
3 2 3 7 10 12 13 10 6 1 353 347 340 336 336 336 337 337 335 334 332 331 330 327 323 323 323 322 320 320 321 317 314 315 312 307 304 302 301 299 296 293 290 287 285 285 286 288 288 285 281 269 262 269 261 256 261 249 243 243 248 252 251 262 262 262 265 261 263 268 272 271 269 267 261 257 258 261 258 255 255 253 252 252 251 253 254 256
354 351 350 351 354 356 356 355 351 347 343 340 338 337 339 342 344 344 342 339 338 336 331 326 323 321 320 320 318 320 323 315 311 315 311 306 304 300 299 297 295 295 294 291 288 286 285 284 285 281 280 272 259 273 270 258 261 248 254 258 248 251 254 264 267 268 272 270 270 269 270 273 272 269 265 258 253 257 259 257 256 255 255 256 256 256 256 257
347 346 343 341 343 344 346 346 344 344 343 343 344 344 345 346 346 344 342 339 338 338 335 331 328 325 322 318 315 315 313 298 303 310 305 301 300 296 295 294 293 294 293 292 289 286 287 285 285 281 282 278 261 272 268 258 267 259 263 265 254 258 258 261 268 274 275 274 271 266 269 274 274 270 267 262 256 257 259 258 256 255 254 254 255 254 256 258
356 353 351 349 352 354 357 357 357 358 359 360 359 356 354 352 349 345 341 336 335 334 333 332 331 331 328 322 317 313 305 296 302 305 302 301 298 296 294 293 293 293 292 291 289 286 286 284 284 283 281 278 267 266 259 263 275 267 260 256 260 269 265 264 272 275 275 273 269 268 271 273 271 269 268 266 261 259 258 257 256 255 254 253 254 255 257 258
11 8 5 7 9 13 17 17 18 19 19 17 14 10 6 2 358 353 349 342 337 333 330 329 327 328 327 324 321 315 308 307 307 302 301 300 297 297 295 295 295 294 295 293 292 288 284 281 278 277 273 269 267 264 263 271 278 273 267 257 264 273 269 271 274 271 272 270 268 269 270 269 269 271 270 266 264 262 261 259 257 255 255 255 255 256 257 258
14 13 14 19 22 26 27 27 27 27 26 23 18 14 9 4 359 355 352 347 343 338 332 328 324 322 319 318 319 311 307 310 307 301 300 298 296 296 294 295 294 294 295 293 294 291 287 283 276 274 270 267 269 269 271 273 269 270 270 261 267 273 271 271 269 268 269 268 268 267 266 268 269 269 267 265 264 263 262 261 259 257 255 255 255 256 257 257
7 10 17 22 24 26 27 26 26 25 24 20 15 12 7 2 357 352 349 344 342 338 334 329 324 320 314 312 311 303 302 305 302 300 299 297 297 296 295 295 292 292 293 292 293 291 289 285 280 277 274 273 274 274 275 271 263 265 269 268 270 273 274 271 266 265 265 265 266 265 265 267 268 265 263 264 264 263 263 262 261 260 258 257 257 256 257 257
357 4 13 17 17 19 22 24 23 22 20 15 10 6 2 358 353 349 345 342 338 334 331 328 324 321 315 311 306 299 299 300 299 299 299 299 300 300 299 296 293 292 293 294 293 291 289 285 282 278 273 275 276 275 274 272 270 269 271 273 274 272 272 269 266 265 264 263 263 265 267 268 267 263 261 263 263 263 263 263 263 263 262 261 260 258 258 256
349 354 2 6 6 10 17 22 20 16 10 5 360 355 352 349 347 345 343 341 336 332 328 325 323 321 317 311 304 301 300 299 299 299 299 302 304 304 303 299 294 292 294 295 292 289 288 285 282 275 272 273 273 274 275 274 274 273 273 272 272 275 275 271 267 265 263 261 263 266 267 266 263 258 259 261 261 262 262 262 263 263 263 263 262 261 259 257
347 348 352 355 355 359 7 12 9 3 358 353 349 346 342 340 338 337 337 337 335 333 328 325 323 320 316 311 308 307 303 301 301 301 304 306 306 305 303 299 293 292 293 292 289 287 285 285 281 277 275 273 272 274 276 278 278 278 276 270 265 271 274 271 270 270 265 263 265 263 256 259 260 257 259 259 259 261 261 261 262 263 264 263 263 262 260 259
351 349 347 345 346 348 350 353 352 351 349 345 343 341 337 335 333 331 330 329 330 330 328 324 320 318 314 309 310 309 304 304 305 307 309 308 308 306 302 299 296 296 296 293 289 285 285 285 284 282 279 275 275 277 279 280 279 277 275 273 270 262 259 265 271 273 267 266 265 258 246 252 259 258 258 258 259 260 261 261 262 262 264 264 264 264 262 260
350 350 345 341 338 337 335 337 341 342 342 340 338 337 334 333 331 329 327 325 325 326 325 322 319 317 312 309 311 310 308 309 310 314 315 316 316 314 311 307 305 305 304 301 295 291 289 289 288 285 283 283 282 281 283 284 282 278 272 274 271 253 254 265 270 268 265 267 262 251 239 247 256 259 258 258 259 260 260 262 262 263 264 264 264 264 263 260
341 342 341 338 334 331 328 329 333 335 336 334 333 333 332 331 329 327 326 325 323 322 324 323 320 319 315 313 315 314 315 317 320 324 323 323 321 318 317 311 308 307 306 306 301 300 298 295 295 292 290 289 286 288 287 277 270 266 260 266 265 249 259 271 270 266 263 265 256 238 231 243 254 259 259 258 259 259 259 261 262 262 262 262 263 263 262 259
327 329 330 330 330 328 325 325 327 329 330 330 329 329 329 329 328 327 326 326 323 323 326 324 321 323 318 316 318 318 322 325 328 327 322 321 318 317 316 310 309 307 306 307 304 306 306 304 303 297 295 295 293 291 280 274 274 264 254 267 270 258 262 270 269 267 261 256 246 232 232 242 253 258 259 257 257 257 257 258 258 259 260 261 262 262 261 259
316 317 318 319 320 320 320 320 321 322 325 327 326 326 327 327 327 327 327 326 324 325 326 323 325 328 314 315 322 323 327 329 326 323 321 320 319 317 315 313 312 310 312 310 308 312 310 308 309 305 304 305 306 290 267 282 294 283 280 289 284 275 274 264 254 261 261 252 245 240 238 243 251 256 258 257 257 257 256 257 258 260 261 261 261 262 261 260
309 310 311 312 313 314 316 317 318 320 322 323 324 325 325 326 327 328 329 328 328 330 328 325 331 332 308 317 326 325 327 327 324 325 325 324 323 323 321 322 321 319 322 317 314 318 313 313 318 315 299 279 277 271 266 276 279 275 281 285 282 281 280 264 252 259 265 256 247 245 244 246 251 255 257 256 257 257 256 257 258 259 260 261 262 262 261 260
305 306 308 310 311 313 315 318 320 320 321 322 324 324 324 327 330 330 330 329 330 333 332 328 333 336 327 332 334 330 329 326 325 326 328 328 328 331 332 335 335 331 331 325 314 315 322 323 306 279 269 265 268 274 278 280 280 281 282 280 278 277 272 265 261 262 265 260 251 249 249 250 252 256 257 256 255 255 255 255 255 256 258 259 260 260 259 257
303 304 307 309 311 313 316 319 320 320 320 321 322 323 325 328 329 328 327 328 331 334 335 340 353 352 344 345 341 334 330 327 327 329 332 335 334 339 340 342 347 335 322 327 321 322 336 324 272 274 286 290 288 289 292 291 291 292 288 283 281 274 262 262 267 267 266 261 253 254 254 253 254 256 256 255 253 252 252 252 252 252 254 256 257 255 254 252
302 303 304 305 307 310 314 318 318 318 319 319 320 323 324 324 325 325 325 329 333 338 350 11 14 356 348 346 340 335 332 331 334 335 336 338 337 340 340 339 346 331 320 332 335 333 336 281 275 298 306 305 305 306 306 305 306 303 293 284 281 273 262 267 274 274 269 259 253 256 255 253 254 255 255 255 254 253 252 251 250 251 251 251 250 248 247 246
301 303 304 305 305 308 312 315 317 317 318 319 320 321 321 321 323 324 327 331 336 351 16 22 3 354 348 343 338 335 337 339 343 342 339 341 340 342 344 340 342 339 335 339 339 335 317 279 293 313 318 318 322 321 318 319 318 307 290 284 289 286 278 277 281 280 271 256 252 256 255 255 256 256 258 258 256 253 252 251 249 249 249 247 246 244 242 239
308 311 313 315 313 314 314 315 318 318 319 320 319 319 319 320 322 324 328 335 356 20 22 11 0 355 347 344 341 341 343 347 349 348 348 349 348 348 348 347 348 349 346 343 343 344 325 315 320 326 326 327 330 330 324 324 322 302 280 286 294 290 283 279 281 286 280 262 257 259 255 254 257 259 258 253 250 247 246 246 244 243 242 240 238 235 234 232
339 341 339 333 328 324 320 318 319 319 319 319 318 319 320 321 322 323 328 341 38 24 13 1 356 353 347 345 345 347 349 351 353 355 354 353 355 356 353 354 357 355 350 349 0 11 338 335 335 333 334 338 343 342 335 335 334 312 285 294 302 293 283 282 289 290 273 259 262 260 245 240 247 250 251 248 243 241 241 240 238 238 236 233 231 229 229 228
4 358 348 338 333 327 322 320 320 319 319 319 320 322 322 323 321 323 331 111 71 10 2 356 353 349 347 349 351 354 356 355 357 360 357 357 360 1 2 4 4 5 2 4 20 8 341 340 341 346 359 9 8 353 343 346 344 323 295 301 307 305 294 291 299 289 260 275 283 263 232 245 241 229 241 247 241 238 238 237 235 235 233 231 231 230 230 230
353 346 339 333 328 323 320 319 319 318 319 322 325 327 327 326 323 325 326 164 97 356 355 356 355 351 351 357 1 6 10 358 358 2 2 6 7 8 13 12 15 20 19 23 22 353 343 346 356 12 23 20 5 348 341 341 337 320 309 311 313 312 302 296 296 274 269 290 295 267 238 263 266 206 226 243 242 241 237 234 234 233 234 234 235 235 235 237
337 333 328 325 322 320 319 317 318 319 322 326 329 331 333 331 329 331 292 165 10 353 353 356 355 353 360 6 8 15 19 5 6 11 11 14 14 16 20 21 31 33 25 29 19 355 353 6 16 22 20 5 351 346 340 338 336 329 324 323 321 316 302 292 279 263 274 281 277 263 225 249 273 172 202 231 231 236 233 235 236 234 238 238 238 241 240 243
327 325 321 321 320 318 318 317 319 322 325 329 331 335 337 338 343 354 151 109 358 353 354 355 357 1 8 12 13 18 20 17 23 23 19 20 19 20 24 23 28 26 21 22 19 11 9 17 20 13 7 359 352 349 351 355 349 339 335 333 330 322 309 297 275 260 274 271 272 269 215 221 242 156 182 215 212 217 222 236 242 237 240 241 241 245 245 248
324 322 321 321 319 318 319 320 322 325 327 331 334 337 340 351 358 20 129 17 353 357 358 357 6 15 14 16 21 26 28 31 35 30 24 25 21 17 19 20 24 27 21 13 12 15 14 13 11 5 1 1 2 359 359 358 352 346 344 341 331 315 297 290 275 258 267 265 289 308 217 234 261 138 158 203 205 205 213 239 252 246 244 244 245 248 248 252
323 322 322 321 319 320 321 322 325 326 329 333 337 341 350 20 23 41 60 4 351 357 2 7 20 25 22 28 35 35 34 35 34 27 23 22 16 12 14 18 25 32 27 11 6 3 1 3 5 2 3 8 9 5 356 351 352 355 353 344 330 310 278 262 243 230 256 274 43 31 350 269 269 100 143 216 215 213 219 242 260 257 250 246 249 252 253 257
322 322 322 321 320 320 322 324 327 328 334 339 344 354 11 61 43 49 32 2 355 356 10 28 32 30 31 38 41 37 35 34 28 22 20 19 19 22 26 25 25 25 13 5 5 353 339 343 360 4 6 6 4 3 358 355 356 360 358 348 339 329 311 294 275 276 291 15 47 8 344 307 283 55 266 254 247 235 234 246 259 263 260 253 253 256 259 263
322 322 321 321 321 321 324 327 331 336 341 349 359 9 48 93 52 45 30 24 24 15 30 43 40 41 40 41 41 35 34 32 25 22 22 24 27 29 30 28 26 24 9 353 1 359 334 330 359 5 6 359 360 5 2 356 356 2 3 356 347 346 338 321 317 316 310 349 344 325 322 313 303 315 280 282 286 271 262 262 267 273 269 260 258 261 264 269
324 323 323 325 325 327 333 334 341 348 348 2 13 26 77 85 69 58 43 42 46 42 50 50 47 48 42 42 40 32 32 29 22 23 25 26 28 26 23 21 20 22 22 10 3 1 346 341 359 2 2 354 357 8 4 356 5 12 9 6 1 3 352 312 316 320 307 309 308 304 305 278 226 272 280 298 309 303 291 279 277 277 272 268 267 268 272 276
329 329 331 333 334 338 342 343 350 354 354 8 20 60 89 87 79 70 54 50 52 57 65 56 54 53 39 38 38 30 31 27 20 21 24 27 28 23 18 16 17 22 30 35 17 5 360 16 8 0 360 357 360 13 12 13 30 15 8 11 359 350 325 285 298 301 289 298 302 286 261 269 268 280 291 308 317 312 303 291 286 283 280 280 279 280 283 286
337 340 342 343 346 346 345 352 356 358 5 8 27 76 87 87 80 69 61 60 56 60 73 54 52 60 43 34 31 27 27 26 26 26 21 23 26 20 17 18 20 27 35 36 26 15 10 27 17 3 0 4 9 18 21 27 31 11 5 1 345 329 309 296 301 299 284 286 301 311 280 299 304 302 308 322 326 323 319 311 305 300 297 295 294 295 298 299
348 351 352 352 354 351 355 5 2 7 20 21 64 80 84 83 75 70 67 68 62 63 76 60 47 55 48 34 27 26 26 26 32 36 21 19 19 15 18 26 29 32 34 35 34 23 10 359 4 0 2 12 19 21 23 24 24 20 10 358 351 341 320 321 313 309 306 298 310 337 27 26 335 299 307 323 333 339 341 334 326 320 314 309 308 308 307 306
354 356 357 358 0 4 12 16 18 29 32 44 77 82 83 80 75 74 70 71 70 65 69 67 57 51 44 36 27 25 30 32 35 38 25 21 21 17 21 32 34 31 31 32 34 30 23 13 343 359 10 23 26 25 18 11 13 19 15 5 7 7 316 330 326 310 312 308 310 327 350 26 29 312 316 329 340 345 343 337 331 325 319 314 312 310 308 307
355 359 0 4 12 18 22 27 33 40 33 55 80 84 83 81 78 76 70 69 70 64 64 63 58 50 40 36 31 27 32 35 34 38 34 30 32 28 29 35 33 28 30 34 37 37 32 22 341 358 11 19 22 26 22 5 5 10 9 3 8 7 318 322 323 309 312 310 312 319 320 346 28 330 330 337 340 339 335 331 326 320 317 314 311 309 309 309
357 360 3 12 19 22 28 35 38 38 41 66 81 87 86 84 80 74 70 66 66 66 65 59 52 48 39 36 35 34 36 35 34 38 41 40 43 38 33 34 33 29 33 41 42 41 36 17 336 348 6 14 12 17 20 7 2 6 7 2 3 5 348 322 306 312 322 314 317 318 317 336 319 317 333 337 334 334 332 327 322 317 315 314 311 310 311 312
2 4 13 20 22 28 33 35 34 40 62 74 82 86 84 83 78 73 70 66 66 66 62 54 49 45 41 39 37 38 40 38 37 42 46 48 51 47 35 31 35 35 36 42 38 34 33 17 343 338 3 12 5 9 14 6 0 1 6 7 5 2 357 337 310 345 341 321 313 309 308 315 304 305 326 332 330 330 327 324 320 315 314 313 312 313 314 314
6 10 25 25 26 34 31 30 42 54 71 81 82 82 82 81 79 75 71 68 66 62 56 51 47 44 44 42 38 43 48 43 43 49 54 57 55 48 38 34 39 38 38 41 33 25 27 18 355 325 336 348 356 6 5 357 355 351 355 4 7 6 5 349 319 334 332 313 310 315 308 306 310 316 325 326 325 325 323 322 319 315 314 314 315 315 314 314
9 18 32 30 34 36 26 40 65 68 75 81 81 83 83 80 79 76 72 69 63 55 52 48 46 45 46 43 42 50 55 50 52 57 60 62 55 46 42 40 42 40 37 36 26 21 23 16 359 324 312 317 328 346 350 352 353 347 346 356 4 10 6 349 316 316 316 313 326 324 309 311 324 325 323 320 320 320 321 320 318 317 317 316 315 315 314 315
15 27 40 42 44 44 41 62 75 75 78 83 83 85 84 80 79 75 70 69 60 53 52 50 48 49 48 50 53 57 61 60 59 62 66 65 55 48 45 44 44 41 38 32 25 25 25 18 4 341 333 325 320 339 346 347 349 338 336 348 359 5 1 357 335 308 303 340 341 316 297 318 324 319 318 318 317 320 321 319 317 316 316 315 315 315 315 316
22 37 52 56 53 53 65 72 75 77 82 88 86 83 84 83 81 75 68 67 61 56 57 55 54 55 55 60 61 61 66 70 68 69 70 66 58 52 45 44 43 39 36 31 25 25 25 25 19 360 351 352 346 340 321 327 332 322 326 340 354 1 6 11 357 320 315 334 327 307 300 316 317 316 319 319 315 317 319 316 313 313 314 315 317 317 318 318
36 52 65 71 64 58 70 77 77 78 82 89 88 85 84 82 81 76 69 67 64 61 64 64 62 63 65 66 68 67 67 70 74 75 71 67 61 53 45 41 39 35 33 27 21 22 23 20 17 7 352 344 341 328 317 324 326 313 321 337 354 358 3 13 9 339 331 326 314 312 317 312 311 315 316 310 307 312 315 313 311 311 314 318 320 320 320 319
49 62 68 80 75 65 73 80 79 79 82 86 89 89 86 83 81 78 72 71 71 70 71 71 68 68 70 70 72 74 71 71 74 72 70 68 58 53 46 39 36 33 29 22 18 20 20 9 4 2 354 343 345 338 331 333 329 321 327 341 352 351 354 8 3 344 341 326 302 315 320 311 312 315 308 306 310 314 314 313 312 313 317 320 321 319 319 319
57 68 68 77 83 79 81 84 81 81 83 86 89 91 89 85 83 81 79 77 77 77 75 75 71 69 71 71 72 76 76 75 73 68 67 63 51 46 40 32 32 29 23 19 14 13 15 8 360 358 350 344 349 345 338 336 332 331 339 345 343 344 345 352 349 343 340 326 311 319 320 314 314 313 310 315 318 317 315 315 316 318 320 321 320 319 319 318
59 72 73 76 85 88 87 87 85 84 84 87 91 93 91 89 87 86 86 84 81 79 77 76 75 71 71 71 69 73 76 75 72 67 63 58 48 39 32 28 27 22 17 14 9 8 9 2 355 353 344 336 347 346 340 336 333 332 345 345 336 336 333 337 343 342 334 326 323 322 320 318 316 314 316 319 318 317 317 318 320 320 320 320 319 319 318 318
61 73 78 78 86 91 88 85 87 90 90 90 93 96 96 94 91 90 90 88 84 82 80 78 77 76 75 76 74 73 74 73 70 66 58 53 44 33 30 27 22 19 14 7 5 7 6 357 352 353 344 324 339 345 341 335 330 323 334 340 332 328 326 330 335 335 330 328 327 323 321 321 317 315 318 319 318 319 320 320 320 319 318 319 319 318 318 318
64 72 81 81 85 91 90 87 90 95 96 95 96 100 101 98 97 95 92 90 86 84 83 80 78 79 77 77 78 73 70 66 60 56 50 42 35 29 26 20 15 15 9 4 4 4 2 358 354 356 352 327 334 341 337 330 322 302 311 332 327 321 321 322 326 329 330 329 326 323 322 319 312 315 319 319 321 322 321 321 321 320 320 320 319 319 318 318
65 71 81 81 82 90 93 94 99 101 100 99 100 103 104 103 103 101 95 91 90 87 84 79 77 78 75 74 73 66 63 58 48 42 33 17 14 18 17 10 6 6 3 3 3 360 360 0 357 357 352 326 336 341 329 318 314 293 315 325 321 316 317 318 322 328 330 326 321 318 318 315 315 319 322 322 323 323 322 322 322 321 322 322 321 320 319 319
Height
3145 3145 3144 3143 3142 3141 3141 3140 3140 3140 3139 3139 3139 3138 3138 3137 3136 3135 3135 3134 3133 3132 3132 3131 3130 3129 3129 3128 3128 3127 3127 3126 3126 3126 3126 3125 3125 3125 3125 3125 3124 3124 3124 3124 3123 3123 3123 3123 3123 3123 3123 3122 3123 3122 3122 3122 3123 3123 3123 3124 3124 3124 3124 3123 3123 3123 3122 3122 3120 3117 3118 3119 3118 3117 3118 3118 3118 3117 3117 3117 3117 3117 3117 3117 3116 3116 3116 3115
3145 3144 3143 3142 3141 3141 3140 3140 3139 3139 3139 3138 3138 3138 3137 3137 3136 3135 3134 3133 3133 3132 3131 3130 3129 3129 3128 3128 3127 3126 3126 3126 3125 3125 3125 3124 3124 3124 3124 3123 3123 3123 3123 3122 3122 3122 3122 3122 3121 3121 3121 3121 3121 3121 3121 3121 3121 3121 3123 3123 3122 3123 3122 3120 3121 3120 3119 3120 3119 3116 3116 3117 3116 3116 3117 3117 3116 3115 3115 3115 3115 3115 3115 3115 3115 3115 3114 3114
3145 3144 3143 3142 3141 3141 3140 3140 3139 3139 3139 3138 3138 3137 3137 3136 3135 3134 3134 3133 3132 3131 3131 3130 3129 3128 3128 3127 3127 3126 3125 3125 3124 3124 3124 3123 3123 3123 3122 3122 3122 3122 3122 3121 3121 3121 3120 3120 3120 3120 3120 3120 3120 3119 3120 3119 3119 3120 3121 3121 3121 3121 3120 3118 3118 3118 3117 3117 3117 3115 3114 3115 3115 3115 3116 3116 3115 3113 3114 3114 3113 3113 3113 3113 3113 3113 3112 3112
3145 3145 3144 3143 3142 3141 3141 3140 3139 3139 3138 3138 3138 3137 3136 3136 3135 3134 3133 3132 3132 3131 3130 3130 3129 3128 3128 3127 3126 3126 3125 3124 3124 3123 3123 3123 3122 3122 3122 3121 3121 3121 3121 3120 3120 3120 3119 3119 3119 3119 3119 3119 3119 3118 3118 3117 3117 3119 3118 3118 3120 3118 3118 3116 3115 3115 3115 3115 3115 3114 3112 3112 3113 3113 3114 3115 3113 3111 3112 3112 3112 3112 3112 3111 3111 3111 3110 3109
3146 3145 3145 3144 3143 3142 3141 3140 3140 3139 3138 3138 3137 3137 3136 3135 3134 3134 3133 3132 3132 3131 3130 3129 3128 3128 3127 3126 3126 3125 3125 3124 3123 3123 3122 3122 3121 3121 3121 3120 3120 3120 3120 3119 3119 3118 3118 3118 3118 3118 3118 3118 3117 3116 3117 3116 3116 3117 3115 3116 3117 3115 3116 3114 3112 3113 3113 3113 3113 3112 3111 3110 3111 3111 3111 3112 3111 3109 3110 3110 3110 3110 3110 3109 3109 3109 3107 3107
3146 3145 3145 3144 3143 3142 3141 3140 3140 3139 3138 3138 3137 3136 3136 3135 3134 3133 3133 3132 3131 3131 3130 3129 3128 3127 3127 3126 3125 3125 3125 3124 3123 3123 3122 3121 3121 3120 3120 3119 3119 3118 3118 3118 3118 3117 3117 3116 3116 3116 3116 3116 3116 3115 3116 3115 3114 3114 3114 3115 3113 3113 3114 3111 3110 3111 3111 3111 3111 3109 3108 3108 3109 3109 3109 3109 3108 3107 3107 3108 3107 3107 3107 3106 3106 3105 3104 3104
3146 3145 3145 3144 3143 3142 3141 3140 3140 3139 3138 3138 3137 3136 3135 3135 3134 3133 3132 3131 3130 3130 3129 3128 3127 3126 3126 3125 3125 3124 3124 3123 3122 3122 3121 3120 3120 3119 3118 3118 3118 3117 3117 3116 3116 3116 3115 3115 3115 3115 3115 3115 3115 3114 3114 3113 3112 3112 3112 3112 3110 3110 3111 3109 3109 3109 3108 3109 3108 3107 3106 3106 3106 3106 3106 3106 3105 3105 3104 3104 3104 3104 3103 3103 3102 3101 3100 3100
3146 3145 3144 3144 3143 3142 3141 3140 3140 3139 3138 3138 3137 3136 3135 3134 3134 3133 3132 3131 3130 3129 3128 3127 3126 3126 3125 3124 3124 3123 3122 3122 3121 3120 3120 3119 3118 3118 3117 3116 3116 3115 3115 3115 3114 3114 3114 3114 3114 3114 3114 3113 3113 3113 3112 3111 3110 3109 3110 3110 3108 3108 3108 3107 3107 3106 3106 3106 3105 3104 3104 3104 3103 3103 3103 3102 3101 3101 3101 3100 3100 3100 3100 3099 3098 3098 3097 3096
3147 3146 3145 3144 3143 3142 3141 3141 3140 3139 3138 3138 3137 3136 3135 3134 3133 3132 3131 3130 3129 3128 3127 3127 3126 3125 3125 3124 3123 3122 3121 3120 3120 3119 3119 3118 3117 3117 3116 3115 3114 3114 3113 3113 3113 3113 3112 3112 3112 3112 3112 3111 3111 3110 3110 3110 3109 3107 3107 3108 3106 3106 3105 3105 3105 3104 3104 3103 3102 3102 3102 3101 3101 3100 3099 3098 3098 3097 3097 3096 3096 3096 3096 3095 3095 3094 3093 3093
3147 3146 3145 3144 3143 3142 3141 3141 3140 3139 3139 3138 3137 3136 3135 3134 3133 3132 3131 3130 3129 3128 3127 3126 3125 3124 3124 3123 3122 3121 3120 3120 3119 3118 3117 3117 3116 3115 3115 3114 3113 3113 3112 3112 3111 3111 3111 3111 3110 3110 3110 3109 3108 3108 3107 3107 3107 3105 3105 3105 3104 3103 3103 3102 3102 3102 3102 3101 3099 3099 3099 3099 3098 3097 3095 3094 3094 3093 3093 3093 3092 3092 3092 3092 3091 3091 3090 3090
3148 3147 3146 3145 3144 3143 3142 3141 3140 3140 3139 3138 3137 3136 3135 3134 3133 3132 3131 3130 3129 3127 3126 3125 3124 3124 3123 3122 3121 3120 3119 3118 3117 3117 3116 3115 3114 3114 3113 3112 3112 3112 3111 3111 3110 3110 3109 3109 3109 3109 3108 3107 3107 3106 3105 3105 3104 3104 3103 3103 3102 3101 3100 3100 3100 3100 3100 3099 3097 3097 3098 3097 3096 3094 3092 3091 3091 3090 3090 3089 3089 3089 3088 3088 3088 3087 3087 3087
3148 3147 3146 3145 3144 3143 3142 3142 3141 3140 3139 3138 3137 3136 3135 3134 3133 3132 3131 3129 3128 3127 3126 3125 3124 3123 3122 3121 3120 3119 3118 3117 3116 3115 3114 3114 3113 3112 3111 3111 3111 3110 3110 3109 3109 3108 3108 3108 3107 3107 3106 3106 3105 3104 3103 3103 3102 3102 3102 3101 3100 3099 3098 3097 3097 3098 3098 3096 3095 3096 3096 3094 3092 3090 3089 3088 3087 3086 3086 3086 3086 3086 3085 3085 3085 3085 3084 3084
3148 3147 3146 3145 3144 3143 3143 3142 3141 3140 3139 3139 3138 3136 3135 3134 3133 3131 3130 3129 3127 3126 3125 3124 3123 3122 3121 3119 3118 3117 3116 3116 3115 3114 3113 3112 3112 3111 3110 3110 3109 3109 3109 3108 3107 3107 3107 3106 3106 3105 3105 3104 3104 3103 3102 3101 3101 3101 3100 3099 3099 3099 3097 3094 3095 3097 3096 3094 3094 3095 3096 3091 3087 3087 3087 3086 3085 3084 3084 3084 3083 3083 3083 3082 3082 3082 3082 3082
3147 3147 3146 3145 3144 3143 3142 3142 3141 3140 3139 3138 3137 3136 3135 3133 3132 3131 3130 3128 3127 3125 3124 3123 3121 3120 3119 3118 3117 3116 3115 3114 3114 3113 3112 3111 3111 3110 3109 3109 3108 3108 3107 3107 3106 3106 3105 3105 3104 3103 3103 3103 3102 3101 3100 3099 3099 3099 3098 3097 3097 3098 3095 3092 3093 3095 3093 3092 3092 3093 3094 3088 3083 3085 3085 3084 3083 3082 3082 3082 3081 3081 3080 3080 3080 3080 3080 3080
3147 3146 3146 3145 3144 3143 3142 3141 3141 3140 3139 3138 3137 3135 3134 3133 3131 3130 3129 3127 3126 3124 3123 3122 3120 3119 3118 3117 3116 3115 3114 3113 3113 3112 3111 3110 3110 3109 3108 3108 3107 3107 3106 3105 3105 3104 3104 3103 3103 3102 3101 3101 3100 3100 3100 3098 3098 3097 3097 3096 3095 3096 3094 3091 3092 3092 3091 3090 3090 3091 3091 3086 3081 3083 3083 3082 3081 3080 3081 3080 3079 3079 3078 3078 3078 3078 3078 3078
3147 3146 3145 3144 3144 3143 3142 3141 3140 3139 3138 3137 3136 3135 3133 3132 3130 3129 3127 3126 3124 3123 3122 3120 3119 3118 3117 3115 3115 3114 3113 3112 3111 3111 3110 3109 3109 3108 3107 3106 3106 3105 3104 3104 3103 3103 3102 3102 3101 3100 3100 3100 3099 3099 3099 3098 3097 3095 3095 3095 3094 3094 3093 3091 3089 3090 3089 3089 3089 3089 3088 3083 3081 3081 3081 3080 3080 3079 3079 3078 3077 3077 3076 3076 3076 3076 3076 3076
3147 3146 3145 3144 3143 3142 3141 3140 3139 3139 3137 3136 3135 3134 3132 3131 3129 3127 3126 3124 3123 3121 3120 3119 3118 3117 3116 3115 3114 3113 3112 3111 3111 3110 3109 3109 3108 3107 3106 3105 3104 3103 3103 3102 3101 3101 3101 3100 3100 3099 3099 3098 3098 3098 3098 3097 3096 3094 3093 3093 3093 3093 3093 3091 3088 3087 3088 3087 3087 3087 3084 3081 3080 3080 3079 3079 3078 3077 3076 3076 3075 3075 3075 3075 3075 3075 3075 3075
3146 3145 3145 3144 3143 3142 3141 3140 3139 3137 3136 3135 3134 3133 3131 3130 3128 3126 3124 3123 3121 3120 3119 3118 3117 3116 3115 3114 3113 3113 3112 3111 3110 3110 3109 3108 3107 3106 3105 3104 3103 3102 3101 3101 3100 3100 3099 3099 3099 3098 3098 3098 3097 3098 3098 3096 3095 3094 3093 3092 3092 3091 3091 3090 3087 3085 3086 3086 3085 3084 3082 3080 3078 3078 3078 3077 3075 3075 3074 3074 3074 3073 3073 3073 3073 3074 3074 3074
3145 3144 3144 3143 3142 3141 3140 3139 3138 3136 3135 3134 3133 3131 3130 3128 3126 3125 3123 3122 3120 3119 3118 3116 3116 3115 3115 3114 3113 3112 3112 3111 3110 3109 3108 3106 3106 3105 3104 3103 3102 3101 3101 3100 3099 3099 3099 3098 3098 3098 3098 3098 3097 3097 3096 3095 3094 3093 3092 3091 3091 3090 3090 3088 3085 3085 3085 3084 3083 3081 3080 3078 3077 3076 3076 3075 3074 3073 3073 3073 3073 3072 3072 3072 3073 3073 3073 3073
3144 3143 3143 3142 3141 3140 3139 3138 3137 3135 3134 3133 3132 3130 3128 3127 3125 3123 3122 3120 3119 3118 3117 3116 3115 3115 3114 3113 3113 3112 3111 3110 3109 3108 3107 3105 3104 3103 3102 3102 3101 3100 3100 3100 3099 3098 3098 3098 3098 3098 3097 3096 3095 3095 3094 3093 3092 3091 3091 3090 3089 3089 3087 3085 3084 3084 3084 3083 3081 3079 3078 3077 3076 3075 3073 3073 3072 3072 3072 3071 3071 3071 3071 3072 3072 3072 3072 3072
3143 3142 3141 3140 3140 3139 3138 3137 3136 3134 3133 3132 3130 3129 3127 3126 3124 3122 3120 3119 3118 3117 3116 3115 3115 3114 3114 3113 3112 3112 3111 3109 3108 3107 3106 3105 3103 3102 3102 3101 3100 3100 3099 3099 3098 3097 3097 3097 3097 3096 3095 3095 3094 3093 3092 3091 3090 3090 3089 3088 3088 3087 3085 3082 3082 3082 3082 3082 3079 3077 3076 3076 3074 3073 3072 3072 3071 3070 3070 3070 3070 3070 3071 3071 3071 3071 3071 3070
3142 3141 3140 3139 3138 3137 3137 3136 3135 3133 3132 3131 3129 3128 3126 3125 3123 3121 3120 3118 3117 3116 3115 3115 3115 3114 3114 3113 3112 3111 3110 3108 3107 3106 3105 3104 3103 3102 3102 3101 3100 3100 3099 3098 3098 3097 3097 3096 3096 3095 3094 3093 3092 3091 3090 3089 3088 3088 3087 3087 3086 3085 3083 3081 3080 3080 3080 3079 3076 3075 3075 3074 3072 3071 3070 3070 3069 3069 3069 3069 3069 3069 3070 3070 3070 3070 3069 3069
3140 3139 3138 3137 3136 3136 3135 3134 3133 3132 3131 3130 3128 3127 3125 3123 3122 3120 3119 3118 3117 3116 3116 3115 3115 3114 3114 3113 3112 3111 3109 3108 3107 3106 3105 3104 3103 3102 3101 3100 3100 3099 3098 3097 3097 3097 3097 3096 3095 3094 3093 3092 3091 3090 3089 3088 3087 3087 3086 3086 3085 3083 3083 3081 3079 3078 3078 3077 3075 3074 3074 3072 3070 3070 3069 3069 3068 3068 3068 3068 3068 3069 3069 3069 3069 3068 3068 3067
3138 3137 3136 3136 3135 3135 3134 3133 3132 3131 3130 3129 3127 3125 3124 3122 3121 3119 3118 3117 3117 3116 3116 3115 3115 3114 3113 3112 3111 3110 3109 3108 3107 3106 3105 3104 3103 3102 3101 3100 3099 3098 3098 3097 3096 3096 3096 3095 3094 3093 3092 3091 3090 3089 3088 3087 3087 3086 3085 3085 3085 3083 3082 3080 3078 3077 3076 3075 3073 3073 3073 3070 3068 3068 3068 3067 3067 3067 3067 3067 3068 3068 3068 3068 3067 3067 3067 3066
3138 3137 3136 3135 3134 3134 3133 3132 3131 3130 3129 3127 3126 3124 3122 3121 3120 3119 3118 3117 3117 3117 3116 3116 3115 3114 3113 3112 3111 3110 3108 3108 3107 3106 3105 3103 3102 3101 3100 3100 3099 3098 3097 3096 3096 3096 3095 3094 3093 3092 3091 3090 3090 3089 3088 3087 3086 3086 3084 3083 3083 3082 3080 3078 3077 3077 3076 3073 3071 3073 3073 3068 3066 3067 3066 3066 3066 3066 3067 3067 3067 3067 3067 3066 3066 3066 3065 3064
3138 3137 3136 3135 3134 3133 3132 3131 3130 3128 3127 3125 3124 3122 3121 3119 3118 3117 3117 3117 3117 3117 3117 3116 3115 3114 3113 3112 3111 3109 3108 3108 3107 3106 3105 3103 3102 3101 3100 3100 3099 3098 3097 3096 3096 3096 3095 3094 3093 3092 3091 3090 3090 3089 3088 3087 3086 3085 3084 3083 3082 3080 3079 3078 3077 3076 3075 3072 3070 3072 3072 3068 3066 3066 3064 3065 3066 3066 3066 3066 3066 3066 3066 3065 3065 3065 3064 3063
3138 3137 3135 3134 3133 3132 3131 3130 3128 3127 3125 3124 3123 3121 3119 3118 3117 3116 3116 3116 3117 3118 3117 3116 3115 3114 3113 3112 3111 3110 3109 3109 3107 3106 3105 3104 3102 3101 3100 3100 3099 3098 3098 3097 3096 3096 3095 3094 3092 3091 3091 3091 3090 3089 3088 3087 3086 3085 3083 3082 3080 3079 3078 3077 3076 3076 3074 3073 3070 3070 3071 3069 3067 3066 3064 3065 3066 3066 3066 3066 3065 3065 3065 3065 3064 3064 3063 3062
3137 3136 3135 3134 3132 3131 3130 3128 3127 3126 3124 3123 3121 3120 3118 3117 3116 3116 3115 3116 3118 3119 3118 3117 3115 3114 3113 3112 3111 3110 3110 3109 3108 3107 3106 3104 3103 3102 3101 3100 3100 3099 3098 3098 3097 3097 3095 3094 3093 3092 3092 3091 3090 3089 3088 3087 3085 3084 3082 3081 3080 3078 3077 3076 3076 3075 3074 3073 3070 3068 3069 3068 3066 3066 3065 3065 3066 3066 3066 3065 3065 3065 3064 3064 3063 3063 3062 3061
3137 3135 3134 3132 3131 3130 3129 3127 3126 3124 3123 3121 3120 3119 3117 3116 3115 3115 3114 3117 3120 3119 3118 3117 3116 3115 3114 3113 3112 3111 3110 3109 3108 3107 3106 3105 3103 3103 3102 3101 3100 3099 3099 3098 3098 3096 3095 3094 3093 3092 3092 3091 3090 3089 3088 3086 3085 3084 3082 3080 3078 3076 3075 3075 3074 3074 3073 3072 3068 3067 3067 3066 3064 3066 3068 3067 3068 3068 3066 3065 3065 3064 3064 3063 3063 3062 3061 3061
3136 3134 3133 3131 3130 3129 3127 3126 3124 3123 3122 3120 3119 3118 3116 3115 3115 3114 3115 3119 3120 3119 3118 3117 3116 3116 3115 3114 3113 3112 3111 3110 3109 3108 3107 3106 3105 3104 3103 3102 3101 3099 3099 3098 3097 3096 3095 3095 3094 3093 3092 3091 3091 3089 3087 3086 3085 3083 3081 3078 3076 3074 3073 3073 3072 3073 3072 3069 3066 3066 3067 3066 3065 3067 3069 3068 3068 3069 3067 3065 3064 3064 3063 3062 3062 3061 3060 3059
3135 3133 3131 3130 3128 3127 3126 3124 3123 3122 3120 3119 3118 3117 3116 3115 3114 3114 3118 3120 3120 3119 3119 3118 3117 3116 3115 3115 3114 3113 3112 3111 3110 3109 3108 3107 3106 3104 3102 3101 3100 3100 3100 3099 3098 3096 3096 3095 3094 3093 3093 3092 3090 3089 3087 3086 3084 3083 3081 3079 3077 3074 3072 3071 3071 3072 3070 3066 3066 3067 3068 3067 3066 3067 3068 3067 3068 3068 3067 3065 3063 3063 3062 3061 3060 3060 3059 3058
3133 3132 3130 3129 3127 3126 3124 3123 3122 3121 3119 3118 3117 3116 3115 3115 3116 3117 3120 3120 3120 3120 3119 3118 3118 3117 3116 3115 3114 3114 3112 3111 3110 3109 3108 3106 3105 3103 3102 3102 3101 3101 3101 3100 3099 3098 3096 3095 3095 3094 3093 3091 3090 3089 3088 3086 3085 3084 3082 3081 3079 3075 3073 3073 3070 3069 3066 3065 3067 3068 3068 3068 3067 3068 3067 3066 3066 3067 3066 3064 3062 3060 3060 3060 3059 3059 3058 3057
3132 3130 3129 3127 3126 3125 3123 3122 3121 3119 3118 3117 3116 3116 3115 3116 3118 3120 3121 3120 3120 3120 3119 3119 3118 3117 3117 3116 3115 3114 3113 3112 3111 3110 3108 3108 3106 3105 3105 3105 3104 3103 3102 3101 3100 3099 3097 3095 3095 3095 3093 3092 3090 3089 3088 3087 3086 3086 3084 3083 3081 3078 3079 3079 3074 3071 3069 3068 3068 3068 3068 3068 3068 3068 3066 3065 3066 3065 3064 3063 3061 3060 3059 3059 3059 3058 3057 3056
3130 3129 3127 3126 3125 3124 3122 3121 3120 3119 3118 3117 3116 3115 3115 3117 3120 3121 3121 3120 3120 3120 3119 3119 3119 3118 3117 3116 3116 3115 3113 3113 3112 3111 3110 3109 3108 3107 3106 3105 3105 3104 3102 3101 3101 3100 3098 3097 3097 3096 3095 3093 3092 3090 3090 3088 3087 3087 3086 3086 3085 3084 3087 3085 3079 3076 3075 3072 3069 3067 3067 3068 3068 3068 3066 3065 3065 3064 3063 3062 3061 3060 3059 3059 3058 3057 3056 3055
3129 3128 3126 3125 3124 3123 3122 3121 3119 3118 3118 3117 3116 3115 3116 3119 3121 3121 3121 3121 3121 3120 3120 3120 3119 3119 3119 3118 3117 3116 3115 3114 3113 3112 3111 3109 3108 3108 3107 3106 3105 3104 3102 3102 3102 3101 3099 3100 3099 3098 3097 3094 3092 3091 3090 3088 3088 3088 3088 3087 3087 3087 3088 3086 3081 3079 3077 3074 3069 3067 3067 3067 3067 3067 3066 3065 3065 3063 3063 3062 3061 3060 3059 3058 3058 3056 3055 3053
3129 3127 3126 3125 3124 3122 3121 3120 3119 3118 3117 3117 3116 3116 3117 3120 3121 3121 3121 3121 3121 3120 3120 3120 3120 3120 3120 3119 3118 3117 3116 3115 3114 3113 3112 3110 3110 3109 3108 3107 3106 3104 3103 3103 3103 3102 3101 3101 3100 3099 3097 3095 3093 3092 3091 3090 3090 3090 3089 3088 3088 3087 3086 3085 3081 3079 3077 3073 3068 3066 3066 3067 3067 3066 3065 3065 3064 3063 3063 3062 3061 3060 3059 3058 3057 3055 3054 3052
3128 3127 3126 3124 3123 3122 3121 3120 3119 3118 3117 3117 3116 3117 3119 3121 3121 3121 3121 3121 3121 3121 3120 3121 3121 3121 3121 3120 3119 3118 3117 3116 3115 3114 3113 3112 3111 3111 3110 3109 3107 3106 3105 3104 3104 3104 3102 3101 3101 3099 3097 3096 3094 3093 3092 3091 3091 3090 3090 3089 3087 3085 3085 3084 3081 3077 3075 3072 3067 3065 3066 3067 3067 3066 3065 3065 3064 3063 3062 3061 3060 3059 3058 3057 3055 3054 3052 3049
3128 3127 3126 3125 3123 3122 3121 3120 3119 3118 3118 3117 3117 3118 3120 3121 3121 3122 3122 3122 3122 3121 3121 3121 3122 3122 3121 3121 3120 3118 3117 3116 3115 3115 3114 3113 3113 3113 3111 3110 3109 3107 3106 3105 3104 3104 3103 3101 3101 3100 3098 3097 3095 3094 3093 3092 3091 3091 3091 3089 3087 3086 3086 3085 3082 3079 3077 3073 3068 3066 3066 3066 3067 3067 3065 3064 3063 3062 3062 3060 3059 3058 3056 3055 3053 3051 3049 3046
3128 3127 3126 3125 3124 3123 3122 3121 3120 3119 3118 3118 3118 3119 3121 3122 3122 3122 3122 3122 3122 3122 3122 3122 3122 3122 3122 3121 3120 3119 3118 3117 3116 3115 3115 3114 3114 3114 3112 3111 3110 3108 3107 3106 3105 3104 3103 3103 3102 3100 3098 3097 3095 3095 3094 3093 3092 3091 3090 3089 3088 3088 3087 3085 3083 3081 3079 3076 3071 3068 3066 3066 3067 3066 3065 3065 3063 3062 3061 3059 3057 3055 3054 3052 3050 3048 3045 3043
3128 3127 3126 3125 3124 3123 3122 3121 3120 3120 3119 3119 3119 3120 3122 3122 3123 3123 3123 3123 3123 3123 3123 3123 3123 3123 3122 3121 3120 3120 3119 3118 3117 3116 3116 3115 3115 3114 3113 3112 3111 3109 3108 3107 3105 3104 3104 3104 3103 3101 3099 3097 3096 3095 3095 3094 3092 3091 3090 3088 3087 3087 3086 3084 3082 3081 3081 3078 3074 3071 3068 3065 3066 3066 3065 3064 3063 3062 3060 3058 3056 3053 3051 3049 3047 3044 3042 3039
3128 3127 3126 3125 3124 3123 3122 3122 3122 3121 3120 3120 3121 3122 3123 3123 3124 3124 3124 3124 3124 3124 3124 3124 3123 3123 3122 3121 3121 3120 3119 3118 3118 3117 3116 3116 3115 3115 3114 3113 3111 3110 3108 3107 3106 3105 3105 3104 3103 3101 3100 3099 3097 3096 3095 3094 3093 3092 3091 3090 3088 3087 3086 3085 3083 3081 3082 3080 3078 3075 3071 3066 3065 3065 3064 3063 3062 3060 3058 3056 3054 3051 3049 3046 3044 3041 3038 3036
3128 3128 3127 3126 3125 3123 3123 3123 3123 3122 3121 3121 3122 3123 3123 3124 3124 3125 3125 3125 3125 3125 3125 3124 3124 3123 3122 3122 3121 3120 3120 3119 3118 3118 3117 3117 3116 3115 3115 3113 3111 3110 3109 3107 3107 3106 3105 3104 3102 3101 3100 3098 3097 3096 3095 3094 3093 3092 3091 3090 3089 3088 3087 3086 3085 3082 3082 3080 3078 3077 3072 3067 3065 3064 3063 3062 3060 3058 3056 3053 3051 3049 3047 3044 3041 3038 3035 3032
3128 3128 3127 3126 3125 3124 3123 3123 3123 3123 3122 3123 3123 3124 3125 3125 3125 3125 3126 3126 3125 3125 3125 3124 3124 3123 3123 3122 3121 3120 3120 3120 3119 3118 3118 3117 3117 3116 3115 3114 3112 3111 3109 3108 3107 3106 3105 3103 3102 3101 3099 3097 3096 3095 3094 3093 3092 3091 3090 3089 3089 3088 3087 3087 3086 3084 3082 3080 3078 3077 3072 3067 3065 3064 3063 3061 3059 3057 3054 3051 3049 3047 3044 3042 3039 3036 3032 3029
3129 3128 3127 3126 3125 3125 3124 3124 3124 3124 3123 3124 3125 3125 3126 3126 3126 3126 3126 3126 3126 3126 3125 3125 3124 3124 3123 3123 3122 3121 3120 3120 3119 3119 3118 3118 3117 3116 3115 3114 3113 3111 3110 3109 3108 3107 3105 3104 3103 3101 3098 3096 3095 3095 3094 3094 3093 3092 3090 3089 3088 3087 3087 3086 3085 3084 3082 3080 3080 3078 3072 3067 3065 3063 3061 3059 3057 3054 3052 3049 3046 3044 3042 3039 3036 3033 3029 3025
3129 3128 3127 3127 3126 3126 3125 3124 3125 3125 3125 3125 3126 3126 3127 3127 3127 3127 3127 3127 3127 3126 3126 3125 3125 3124 3124 3123 3122 3121 3121 3120 3120 3119 3119 3118 3117 3117 3116 3115 3113 3112 3111 3110 3109 3107 3106 3105 3104 3103 3101 3099 3098 3097 3096 3095 3094 3093 3090 3089 3088 3086 3086 3085 3084 3083 3081 3080 3079 3077 3071 3068 3067 3064 3059 3056 3054 3052 3050 3047 3044 3042 3039 3036 3032 3028 3025 3021
3129 3128 3128 3127 3127 3127 3126 3126 3126 3126 3126 3127 3127 3127 3128 3128 3128 3128 3128 3127 3127 3127 3126 3126 3125 3125 3124 3124 3123 3122 3121 3121 3120 3120 3119 3119 3118 3117 3116 3115 3114 3112 3111 3110 3109 3107 3106 3105 3105 3104 3103 3101 3101 3100 3097 3095 3094 3092 3090 3088 3087 3086 3085 3084 3084 3084 3082 3080 3077 3074 3072 3068 3066 3065 3061 3056 3053 3051 3048 3046 3043 3039 3036 3032 3028 3024 3020 3017
3130 3129 3128 3128 3128 3128 3127 3127 3127 3127 3128 3128 3128 3128 3129 3129 3129 3129 3128 3128 3128 3127 3127 3126 3126 3125 3125 3124 3123 3123 3122 3122 3121 3120 3120 3119 3118 3117 3116 3115 3114 3113 3111 3110 3109 3107 3106 3105 3105 3103 3102 3101 3100 3098 3096 3094 3092 3091 3089 3087 3086 3085 3084 3083 3083 3083 3082 3079 3075 3072 3071 3066 3063 3063 3060 3055 3052 3049 3046 3043 3040 3036 3032 3028 3024 3021 3017 3013
3130 3130 3129 3129 3129 3129 3128 3128 3129 3129 3129 3129 3129 3129 3129 3129 3129 3129 3129 3129 3128 3128 3127 3127 3127 3126 3125 3125 3124 3123 3123 3122 3122 3121 3120 3119 3118 3117 3116 3115 3114 3113 3111 3110 3109 3107 3106 3105 3104 3102 3101 3100 3098 3096 3094 3092 3090 3088 3087 3086 3085 3084 3083 3082 3081 3080 3079 3077 3073 3069 3067 3064 3061 3059 3056 3052 3050 3047 3043 3040 3036 3032 3028 3024 3021 3017 3013 3010
3131 3130 3130 3130 3129 3130 3129 3129 3130 3130 3130 3130 3130 3130 3130 3130 3130 3130 3130 3129 3129 3129 3128 3128 3127 3127 3126 3125 3125 3124 3123 3123 3122 3121 3120 3119 3118 3117 3116 3115 3114 3113 3111 3110 3109 3107 3106 3104 3103 3101 3099 3098 3096 3094 3092 3089 3087 3086 3085 3085 3084 3083 3081 3080 3079 3077 3075 3073 3071 3067 3064 3060 3057 3055 3053 3050 3047 3043 3039 3035 3032 3028 3024 3020 3017 3013 3010 3006
3132 3131 3131 3131 3130 3130 3130 3130 3130 3131 3131 3131 3130 3130 3131 3131 3131 3130 3130 3130 3130 3129 3129 3129 3128 3127 3127 3126 3125 3125 3124 3123 3122 3121 3120 3119 3118 3117 3116 3115 3114 3112 3111 3110 3109 3107 3105 3104 3102 3100 3097 3096 3094 3093 3090 3088 3086 3084 3084 3084 3083 3081 3080 3078 3077 3076 3073 3070 3067 3064 3061 3057 3054 3052 3049 3047 3043 3039 3036 3032 3028 3025 3021 3017 3013 3010 3006 3002
3132 3132 3132 3132 3131 3131 3131 3131 3131 3132 3132 3132 3131 3131 3131 3131 3131 3131 3131 3131 3130 3130 3130 3129 3128 3128 3127 3126 3126 3125 3124 3123 3122 3121 3120 3119 3118 3117 3116 3115 3114 3112 3111 3110 3108 3107 3105 3103 3101 3099 3097 3095 3094 3091 3088 3086 3084 3084 3083 3082 3081 3080 3079 3077 3076 3074 3071 3067 3064 3061 3058 3056 3052 3049 3046 3043 3039 3035 3032 3028 3024 3021 3018 3014 3010 3006 3002 2999
3133 3133 3132 3132 3132 3132 3132 3132 3132 3133 3132 3132 3132 3132 3132 3132 3132 3132 3132 3131 3131 3131 3130 3130 3129 3128 3127 3127 3126 3125 3124 3123 3122 3121 3120 3119 3118 3117 3116 3114 3113 3112 3110 3109 3107 3106 3104 3102 3100 3099 3097 3096 3094 3091 3087 3085 3083 3082 3082 3081 3080 3079 3078 3076 3074 3072 3069 3066 3062 3059 3057 3054 3050 3046 3042 3039 3035 3031 3028 3024 3020 3016 3013 3010 3006 3002 2998 2994